Greenville, MS

11:12 AM CDT on July 22, 2017 (GMT -0500)
Mid Delta Regional

Weather History for KGLH - May, 2012

Change the Weather History Date:

Sunday, May 13, 2012

  Actual Average Record
Temperature  
Mean Temperature 70 °F 72 °F  
Max Temperature 78 °F 82 °F 96 °F (1916)
Min Temperature 61 °F 62 °F 45 °F (1960)
Degree Days  
Heating Degree Days 0 0  
Month to date heating degree days 0 10  
Since 1 July heating degree days 2118 2771  
Cooling Degree Days 5 7  
Month to date cooling degree days 125 75  
Year to date cooling degree days 313 161  
Growing Degree Days 20 (Base 50)    
Moisture  
Dew Point 62 °F    
Average Humidity 75    
Maximum Humidity 93    
Minimum Humidity 56    
Precipitation  
Precipitation 0.20 in 0.18 in 2.25 in (1954)
Month to date precipitation 2.46 2.31  
Year to date precipitation 15.21 21.66  
Sea Level Pressure  
Sea Level Pressure 30.05 in    
Wind  
Wind Speed 7 mph (NNW)    
Max Wind Speed 16 mph    
Max Gust Speed 20 mph    
Visibility 8 miles    
Events Rain    
T = Trace of Precipitation, MM = Missing Value Source: NWS Daily Summary

Daily Weather History Graph

Daily Weather History Graph

Search for Another Location

Airport or City:

Trip Planner

Search our weather history database for the weather conditions in past years. The results will help you decide how hot, cold, wet, or windy it might be!

Date:

Astronomy

May. 13, 2012 Rise Set
Actual Time 6:04 AM CDT 7:56 PM CDT
Civil Twilight 5:37 AM CDT 8:23 PM CDT
Nautical Twilight 5:04 AM CDT 8:56 PM CDT
Astronomical Twilight 4:29 AM CDT 9:32 PM CDT
Moon 1:49 AM CDT (5/13) 1:36 PM CDT (5/13)
Length of Visible Light 14h 46m
Length of Day
13h 51m
Last Quarter, 42% of the Moon is Illuminated
May 13
Last Quarter
May 20
New
May 28
First Quarter
Jun 4
Full
Jun 11
Last Quarter

Hourly Weather History & Observations

Time (CDT) Temp. Dew Point Humidity Pressure Visibility Wind Dir Wind Speed Gust Speed Precip Events Conditions
12:53 AM 64.0 °F 62.1 °F 93% 30.04 in 8.0 mi NNW 5.8 mph - 0.01 in   Overcast
1:53 AM 64.0 °F 62.1 °F 93% 30.04 in 8.0 mi North 6.9 mph - N/A   Overcast
2:53 AM 64.0 °F 62.1 °F 93% 30.03 in 8.0 mi North 6.9 mph - N/A   Overcast
3:53 AM 64.0 °F 62.1 °F 93% 30.03 in 6.0 mi NW 5.8 mph - N/A   Overcast
4:53 AM 64.0 °F 62.1 °F 93% 30.04 in 9.0 mi WNW 5.8 mph - N/A   Overcast
5:53 AM 64.0 °F 62.1 °F 93% 30.04 in 8.0 mi NW 8.1 mph - N/A   Overcast
6:45 AM 62.6 °F 62.6 °F 100% 30.04 in 2.0 mi NNW 5.8 mph - 0.02 in Rain Rain
6:53 AM 63.0 °F 62.1 °F 97% 30.06 in 3.0 mi NNW 6.9 mph - 0.02 in Rain Light Rain
7:38 AM 62.6 °F 62.6 °F 100% 30.06 in 2.5 mi NW 8.1 mph - 0.00 in Rain Light Rain
7:53 AM 63.0 °F 63.0 °F 100% 30.08 in 1.8 mi NW 8.1 mph - 0.03 in Rain Light Rain
8:26 AM 62.6 °F 62.6 °F 100% 30.07 in 3.0 mi NW 5.8 mph - 0.15 in Rain Light Rain
8:53 AM 64.0 °F 63.0 °F 96% 30.09 in 5.0 mi NNW 4.6 mph - 0.15 in   Overcast
9:00 AM 64.4 °F 62.6 °F 94% 30.07 in 5.0 mi NNW 5.8 mph - N/A   Overcast
9:53 AM 66.2 °F 62.6 °F 88% 30.07 in 9.0 mi NNW 8.1 mph - N/A   Overcast
10:18 AM 68.0 °F 64.4 °F 88% 30.07 in 9.0 mi North 8.1 mph - N/A   Overcast
10:53 AM 71.1 °F 63.0 °F 75% 30.08 in 10.0 mi North 11.5 mph - N/A   Mostly Cloudy
11:46 AM 75.2 °F 64.4 °F 69% 30.06 in 10.0 mi North 10.4 mph - N/A   Scattered Clouds
11:53 AM 75.0 °F 64.0 °F 69% 30.08 in 10.0 mi North 11.5 mph - N/A   Scattered Clouds
12:17 PM 75.2 °F 64.4 °F 69% 30.05 in 10.0 mi North 8.1 mph - N/A   Mostly Cloudy
12:27 PM 75.2 °F 62.6 °F 65% 30.05 in 10.0 mi North 9.2 mph 16.1 mph N/A   Mostly Cloudy
12:53 PM 75.0 °F 62.1 °F 64% 30.07 in 10.0 mi North 10.4 mph - N/A   Mostly Cloudy
1:53 PM 75.9 °F 62.1 °F 62% 30.06 in 10.0 mi North 11.5 mph - N/A   Overcast
2:53 PM 73.9 °F 60.1 °F 62% 30.05 in 10.0 mi North 11.5 mph - N/A   Overcast
3:53 PM 77.0 °F 61.0 °F 58% 30.04 in 10.0 mi North 12.7 mph - N/A   Scattered Clouds
4:53 PM 75.9 °F 61.0 °F 60% 30.04 in 10.0 mi NNE 11.5 mph - N/A   Mostly Cloudy
5:53 PM 77.0 °F 61.0 °F 58% 30.04 in 10.0 mi NNW 12.7 mph 18.4 mph N/A   Mostly Cloudy
6:53 PM 73.0 °F 60.1 °F 64% 30.03 in 10.0 mi North 8.1 mph - N/A   Partly Cloudy
7:53 PM 70.0 °F 57.9 °F 65% 30.04 in 10.0 mi North 6.9 mph - N/A   Partly Cloudy
8:53 PM 66.0 °F 60.1 °F 81% 30.04 in 10.0 mi Calm Calm - N/A   Clear
9:53 PM 64.9 °F 61.0 °F 87% 30.06 in 10.0 mi Calm Calm - N/A   Clear
10:53 PM 64.0 °F 57.9 °F 80% 30.06 in 10.0 mi Calm Calm - N/A   Clear
11:53 PM 63.0 °F 57.9 °F 84% 30.05 in 10.0 mi Calm Calm - N/A   Overcast